Location: Beadle
(51.4667°N, 109.0000°W)
Time: 08:16:39
(UTC+00:00)

STARLINK-2233 - Visible Passes

Search period start: 26 November 2022 00:00
Search period end: 06 December 2022 00:00
Orbit: 546 x 548 km, 53.1° (Epoch: 25 November)

Date Brightness Start Highest point End Pass type
(mag) Time Alt. Az. Time Alt. Az. Time Alt. Az.
26 Nov ? 13:42:07 10° SW 13:45:57 38° SE 13:49:48 10° ENE visible
27 Nov ? 11:59:24 10° SSE 12:00:52 12° SE 12:02:21 10° ESE visible
27 Nov ? 13:35:38 10° SW 13:39:35 46° SSE 13:43:33 10° ENE visible
28 Nov ? 11:52:27 11° SSE 11:54:25 15° SE 11:56:48 10° E visible
28 Nov ? 13:29:14 10° SW 13:33:15 55° SSE 13:37:18 10° ENE visible
29 Nov ? 11:47:18 18° SSE 11:48:00 19° SE 11:50:55 10° E visible
29 Nov ? 13:22:57 10° WSW 13:26:58 65° SSE 13:31:04 10° ENE visible
30 Nov ? 11:41:56 23° SE 11:41:56 23° SE 11:44:55 10° E visible
30 Nov ? 13:17:35 17° WSW 13:20:43 75° SSE 13:24:51 10° ENE visible
01 Dec ? 11:36:26 25° ESE 11:36:26 25° ESE 11:38:52 10° E visible
01 Dec ? 13:12:03 24° WSW 13:14:29 85° SSE 13:18:38 10° ENE visible
02 Dec ? 11:30:49 23° E 11:30:49 23° E 11:32:46 10° E visible
02 Dec ? 13:06:26 32° WSW 13:08:17 87° NNW 13:12:27 10° ENE visible
03 Dec ? 11:25:07 21° E 11:25:07 21° E 11:26:39 10° ENE visible
03 Dec ? 13:00:44 40° W 13:02:08 80° NNW 13:06:17 10° ENE visible
04 Dec ? 11:19:22 18° E 11:19:22 18° E 11:20:31 10° ENE visible
04 Dec ? 12:54:59 49° W 12:55:59 75° N 13:00:08 10° ENE visible
05 Dec ? 11:13:34 15° ENE 11:13:34 15° ENE 11:14:24 10° ENE visible
05 Dec ? 12:49:11 57° WNW 12:49:52 71° N 12:54:01 10° E visible
05 Dec ? 14:25:26 10° WNW 14:29:35 87° NNE 14:33:44 10° ESE visible
